Regional Weather Roundup
Issued by NWS

Home | Current Version | Previous Version | Text Only | Print | Product List | Glossary On
Versions: 1 2 3 4 5 6 7 8 9 10 11 12 13 14 15 16 17 18 19 20 21 22 23 24 25 26 27 28 29 30 31 32 33 34 35 36 37 38 39 40 41 42 43 44 45 46 47 48 49 50
000
ASUS46 KSTO 111609
RWRCA

NORTHERN AND CENTRAL CA REGIONAL WEATHER ROUNDUP
NATIONAL WEATHER SERVICE SACRAMENTO CA
800 AM PST THU FEB 11 2016

NOTE: FAIR INDICATES FEW OR NO CLOUDS BELOW 12,000 FEET WITH NO
SIGNIFICANT WEATHER AND/OR OBSTRUCTIONS TO VISIBILITY.

CAZ001-003-111700-
NORTHWEST AREA

CITY           SKY/WX    TMP DP  RH WIND       PRES   REMARKS
CRESCENT CITY  MOCLDY    53  48  83 SE5       30.12S
ARCATA         NOT AVBL
SHELTER COVE   NOT AVBL
UKIAH          MOCLDY    46  43  89 CALM      30.18R
$$

CAZ006-505>513-111700-
BAY AREA

CITY           SKY/WX    TMP DP  RH WIND       PRES   REMARKS
SANTA ROSA     MOCLDY    48  46  93 CALM      30.15R
SAN RAFAEL     N/A       51  MM  MM MISG
NAPA           CLOUDY    51  48  89 N5        30.15S
CONCORD        MOCLDY    48  43  82 SW3       30.16S
OAKLAND CITY   N/A       53  MM  MM MISG
OAKLAND        CLOUDY    53  48  83 CALM      30.16R
SAN FRAN CITY  N/A       56  MM  81 MISG
SAN FRAN ARPT  CLOUDY    56  52  86 NE3       30.15R
LIVERMORE      MOCLDY    45  41  86 CALM      30.16R
HAYWARD        MOCLDY    52  43  71 SE3       30.14S
REDWOOD CITY   N/A       MM  MM  MM MISG
MOFFETT ARPT   MOCLDY    52  45  77 S3        30.16R
SAN JOSE ARPT  CLOUDY    50  45  83 S3        30.15R
$$
CAZ034-037-514>518-111700-
CENTRAL COAST

CITY           SKY/WX    TMP DP  RH WIND       PRES   REMARKS
WATSONVILLE    PTSUNNY   49  45  86 SW5       30.15R
SALINAS        MOSUNNY   53  43  68 E20       30.12R
MONTEREY       PTSUNNY   52  42  69 CALM      30.14R
PT PIEDRAS BLS NOT AVBL
SAN LUIS OBISP MOSUNNY   50  42  74 CALM      30.12R
SANTA MARIA    MOSUNNY   51  43  74 CALM      30.12R
$$
CAZ015-016-111700-
NORTHERN SACRAMENTO VALLEY

CITY           SKY/WX    TMP DP  RH WIND       PRES   REMARKS
REDDING        MOCLDY    51  42  71 N6        30.18R
RED BLUFF      MOCLDY    46  44  93 N3        30.19R
OROVILLE       PTCLDY    52  42  69 SE3       30.19R
$$
CAZ016>018-111700-
SOUTHERN SACRAMENTO VALLEY

CITY           SKY/WX    TMP DP  RH WIND       PRES   REMARKS
AUBURN         PTCLDY    55  32  41 E5        30.19R
BEALE AFB      PTCLDY    45  45  99 E2        30.17R
LINCOLN        FAIR      43  41  93 NE5       30.18R
MARYSVILLE     PTCLDY    46  44  93 CALM      30.19R
PLACERVILLE    FAIR      59  25  27 CALM      30.23R
SAC INTL ARPT  CLOUDY    46  44  93 E5        30.17R
MATHER AIRPORT MOCLDY    48  45  87 CALM      30.19R
DOWNTOWN SAC   N/A       50  MM  MM MISG
SAC EXEC ARPT  MOCLDY    46  43  89 CALM      30.18R
VACAVILLE      MOCLDY    48  45  89 CALM      30.17S
TRAVIS AFB     NOT AVBL
$$
CAZ019>021-111700-
SAN JOAQUIN VALLEY

CITY           SKY/WX    TMP DP  RH WIND       PRES   REMARKS
STOCKTON       PTSUNNY   48  47  96 CALM      30.17R
MODESTO        MOSUNNY   47  44  90 SE3       30.17R FOG
MERCED         PTSUNNY   44  44 100 CALM      30.17R FOG
LEMOORE        CLOUDY    45  41  86 CALM      30.19R FOG
FRESNO         CLOUDY    49  46  90 E3        30.19R
HANFORD        FOG       42  42 100 CALM      30.19R VSB<1/4
PORTERVILLE    MOSUNNY  N/A N/A N/A E3        30.19S
BAKERSFIELD    SUNNY     49  44  83 SE5       30.19R HAZE
$$
CAZ011-012-071-111700-
NORTHERN MOUNTAINS

CITY           SKY/WX    TMP DP  RH WIND       PRES   REMARKS
YREKA          CLOUDY    38  36  92 CALM      30.23R
MOUNT SHASTA   MOCLDY    40  33  76 CALM      30.22R HAZE
ALTURAS        CLOUDY    35  32  88 CALM      30.27R
$$
CAZ011-012-071-111700-
SIERRA NEVADA MTNS

CITY           SKY/WX    TMP DP  RH WIND       PRES   REMARKS
BLUE CANYON    CLEAR     55  18  23 SE3       30.31R
TRUCKEE        SUNNY     23  21  93 CALM      30.37R
TAHOE VLY ARPT MOSUNNY   24  21  88 S5        30.37R WCI  18
MAMMOTH LAKES  FAIR      30  21  69 CALM      30.41R
$$



USA.gov is the U.S. government's official web portal to all federal, state and local government web resources and services.